Regional Weather Roundup
Issued by NWS

Home | Current Version | Previous Version | Graphics & Text | Print | Product List | Glossary On
Versions: 1 2 3 4 5 6 7 8 9 10 11 12 13 14 15 16 17 18 19 20 21 22 23 24 25 26 27 28 29 30 31 32 33 34 35 36 37 38 39 40 41 42 43 44 45 46 47 48 49 50
000
ASUS43 KBIS 252302
RWRND

NORTH DAKOTA REGIONAL WEATHER ROUNDUP
NATIONAL WEATHER SERVICE BISMARCK ND
600 PM CDT MON JUL 25 2016

NOTE: "FAIR" INDICATES FEW OR NO CLOUDS BELOW 12,000 FEET WITH NO
SIGNIFICANT WEATHER AND/OR OBSTRUCTIONS TO VISIBILITY.


NDZ001>003-009>011-017-260000-
NORTHWEST NORTH DAKOTA

CITY           SKY/WX    TMP DP  RH WIND       PRES   REMARKS
WILLISTON      SUNNY     91  53  27 N8        29.96S
MINOT          SUNNY     90  64  42 VRB5      29.94S HX  91
MINOT AFB      SUNNY     86  65  48 NE12      29.94R
$$

NDZ018>021-031>035-040>046-260000-
SOUTHWEST NORTH DAKOTA

CITY           SKY/WX    TMP DP  RH WIND       PRES   REMARKS
BISMARCK       SUNNY     94  61  33 N3        29.91F HX  94
DICKINSON      SUNNY     92  44  19 CALM      29.94F
GARRISON         N/A     89  64  43 NW6       29.94S HX  90
HETTINGER ARPT SUNNY    100  48  17 N8        29.95F HX  96
$$

NDZ004>008-012>016-024-026-027-054-260000-
NORTHEAST NORTH DAKOTA

CITY           SKY/WX    TMP DP  RH WIND       PRES   REMARKS
GRAND FORKS    MOSUNNY   90  66  45 S7        29.91F HX  92
GRND FRKS AFB  SUNNY     89  67  48 S7        29.92F HX  91
DEVILS LAKE    SUNNY     86  71  60 NE8       29.93S HX  91
$$

NDZ022-023-025-028>030-036>039-047>053-260000-
SOUTHEAST NORTH DAKOTA

CITY           SKY/WX    TMP DP  RH WIND       PRES   REMARKS
FARGO          SUNNY     90  59  35 SW13      29.93F
JAMESTOWN      SUNNY     89  66  46 S12       29.92F HX  91
$$




USA.gov is the U.S. government's official web portal to all federal, state and local government web resources and services.